Flag for U.S.A. Weather past 2 weeks in Sioux Falls, South Dakota, U.S.A.

Now
39 °F

Clear.


Feels Like: 39 °F
Forecast: 40 / 67 °F
Wind: No wind

Location: Foss Field

Current Time: Sep 16, 2014 at 7:05:46 AM

Latest Report: Sep 16, 2014 at 5:56 AM


Visibility: 10 mi

Pressure: 30.21 "Hg

Humidity: 96%

Dew point: 38 °F

Location of Sioux FallsLocation

Historic Weather in Sioux Falls — Graph

°F

Sioux Falls temperature yesterday

Maximum temperature yesterday: 63 °F (at 4:56 PM)
Minimum temperature yesterday: 45 °F (at 11:56 PM)
Average temperature yesterday: 53 °F

Past Weeks' High & Low Weather Summary

 TemperatureHumidityPressure
High80 °F (Sep 3, 4:56 PM)100% (Sep 14, 7:56 AM)30.50 "Hg (Sep 14, 7:56 AM)
Low38 °F (Sep 12, 11:56 PM)39% (Sep 6, 6:56 PM)29.57 "Hg (Sep 4, 5:56 AM)
Average60 °F76%30.04 "Hg
* Reported Sep 1 5:56 AM — Sep 16 5:56 AM, Sioux Falls, Weather by CustomWeather, © 2014

Note: Actual official high and low records may vary slightly from our data, if they occured in-between our weather recording intervals... More about our weather records

Advertising

Sioux Falls weather history for previous 24 hours

 ConditionsComfort  
Time TempWeatherWind HumidityBarometerVisibility
5:56 AM
Sep 16
39 °FClear.No wind96%30.21 "Hg10 mi
4:56 AM42 °FClear.No wind89%30.22 "Hg10 mi
3:56 AM41 °FFog.No wind96%30.23 "Hg4 mi
2:56 AM42 °FClear.No wind96%30.24 "Hg10 mi
1:56 AM43 °FClear.No wind93%30.25 "Hg10 mi
12:56 AM44 °FClear.No wind93%30.26 "Hg10 mi
11:56 PM
Sep 15
45 °FClear.No wind93%30.26 "Hg10 mi
10:56 PM46 °FClear.No wind89%30.26 "Hg10 mi
9:56 PM48 °FClear.No wind86%30.25 "Hg10 mi
8:56 PM49 °FClear.No wind80%30.25 "Hg10 mi
7:56 PM54 °FSunny.3 mph64%30.24 "Hg10 mi
6:56 PM60 °FSunny.3 mph56%30.24 "Hg10 mi
5:56 PM62 °FPassing clouds.3 mph44%30.23 "Hg10 mi
4:56 PM63 °FPassing clouds.5 mph47%30.24 "Hg10 mi
3:56 PM62 °FScattered clouds.7 mph50%30.25 "Hg10 mi
2:56 PM60 °FPartly sunny.8 mph53%30.27 "Hg10 mi
1:56 PM59 °FPartly sunny.10 mph56%30.27 "Hg10 mi
12:56 PM56 °FPartly sunny.9 mph60%30.28 "Hg10 mi
11:56 AM58 °FPartly sunny.12 mph62%30.27 "Hg10 mi
10:56 AM56 °FScattered clouds.10 mph67%30.27 "Hg10 mi
9:56 AM53 °FPassing clouds.7 mph80%30.27 "Hg10 mi
8:56 AM51 °FScattered clouds.6 mph86%30.26 "Hg10 mi
7:56 AM48 °FPassing clouds.6 mph93%30.25 "Hg10 mi
Weather by CustomWeather, © 2014

See weather overviewHow to use our weather pages